Hourly Weather Abadin

Today, 25 November, Wednesday

Time Temperature Precipitation Wind Pressure Humidity
00:00 +9°C° 1.9 mm 1 mps 703 mmHg 94%
01:00 +9°C° 1.9 mm 1 mps 703 mmHg 95%
02:00 +8°C° 1.9 mm 1 mps 703 mmHg 97%
03:00 +8°C° 0.1 mm 1 mps 703 mmHg 97%
04:00 +8°C° 0.1 mm 1 mps 703 mmHg 97%
05:00 +8°C° 0 mm 1 mps 703 mmHg 96%
06:00 +8°C° 0 mm 1 mps 703 mmHg 96%
07:00 +8°C° 0 mm 1 mps 703 mmHg 96%
08:00 +8°C° 0 mm 1 mps 703 mmHg 95%
09:00 +8°C° 0 mm 1 mps 703 mmHg 94%
10:00 +9°C° 0 mm 1 mps 703 mmHg 93%
11:00 +9°C° 0 mm 1 mps 703 mmHg 93%
12:00 +9°C° 0.8 mm 1 mps 702 mmHg 93%
13:00 +9°C° 0.8 mm 1 mps 702 mmHg 93%
14:00 +9°C° 0.8 mm 1 mps 701 mmHg 93%
15:00 +8°C° 0.3 mm 1 mps 701 mmHg 94%
16:00 +7°C° 0.3 mm 1 mps 701 mmHg 96%
17:00 +7°C° 0.3 mm 1 mps 701 mmHg 97%
18:00 +7°C° 0 mm 1 mps 701 mmHg 97%
19:00 +7°C° 0 mm 1 mps 701 mmHg 97%
20:00 +7°C° 0 mm 1 mps 701 mmHg 97%
21:00 +7°C° 0 mm 1 mps 701 mmHg 98%
22:00 +7°C° 0 mm 1 mps 700 mmHg 98%
23:00 +6°C° 0 mm 0 mps 700 mmHg 98%

Tomorrow, 26 November, Thursday

Time Temperature Precipitation Wind Pressure Humidity
00:00 +6°C° 0 mm 0 mps 700 mmHg 98%
01:00 +5°C° 0 mm 0 mps 700 mmHg 97%
02:00 +6°C° 0 mm 1 mps 699 mmHg 97%
03:00 +6°C° 0 mm 1 mps 699 mmHg 96%
04:00 +6°C° 0 mm 1 mps 700 mmHg 95%
05:00 +6°C° 0 mm 1 mps 700 mmHg 95%
06:00 +7°C° 0 mm 1 mps 700 mmHg 93%
07:00 +7°C° 0 mm 1 mps 700 mmHg 91%
08:00 +8°C° 0 mm 1 mps 701 mmHg 90%
09:00 +10°C° 0 mm 1 mps 701 mmHg 83%
10:00 +12°C° 0 mm 1 mps 701 mmHg 76%
11:00 +13°C° 0 mm 1 mps 702 mmHg 69%
12:00 +13°C° 0 mm 1 mps 702 mmHg 70%
13:00 +13°C° 0 mm 1 mps 702 mmHg 70%
14:00 +13°C° 0 mm 1 mps 701 mmHg 71%
15:00 +12°C° 0 mm 1 mps 701 mmHg 77%
16:00 +10°C° 0 mm 1 mps 701 mmHg 84%
17:00 +9°C° 0 mm 1 mps 701 mmHg 90%
18:00 +9°C° 0 mm 1 mps 701 mmHg 89%
19:00 +8°C° 0 mm 1 mps 702 mmHg 88%
20:00 +8°C° 0 mm 1 mps 702 mmHg 88%
21:00 +7°C° 0 mm 0 mps 702 mmHg 88%
22:00 +7°C° 0 mm 0 mps 702 mmHg 88%
23:00 +7°C° 0 mm 0 mps 702 mmHg 88%

Day after tomorrow, 27 November, Friday

Time Temperature Precipitation Wind Pressure Humidity
00:00 +7°C° 0 mm 0 mps 702 mmHg 87%
01:00 +7°C° 0 mm 0 mps 702 mmHg 86%
02:00 +7°C° 0 mm 0 mps 702 mmHg 85%
03:00 +8°C° 0 mm 1 mps 702 mmHg 86%
04:00 +7°C° 0 mm 1 mps 702 mmHg 86%
05:00 +7°C° 0 mm 1 mps 701 mmHg 87%
06:00 +8°C° 0 mm 1 mps 702 mmHg 85%
07:00 +8°C° 0 mm 1 mps 702 mmHg 82%
08:00 +9°C° 0 mm 1 mps 702 mmHg 80%
09:00 +11°C° 0 mm 1 mps 702 mmHg 72%
10:00 +13°C° 0 mm 1 mps 702 mmHg 63%
11:00 +14°C° 0 mm 0 mps 702 mmHg 55%
12:00 +14°C° 0 mm 0 mps 702 mmHg 57%
13:00 +14°C° 0 mm 0 mps 702 mmHg 58%
14:00 +14°C° 0 mm 0 mps 701 mmHg 60%
15:00 +12°C° 0 mm 0 mps 701 mmHg 70%
16:00 +10°C° 0 mm 0 mps 701 mmHg 80%
17:00 +8°C° 0 mm 0 mps 701 mmHg 90%
18:00 +7°C° 0 mm 0 mps 701 mmHg 90%
19:00 +8°C° 0 mm 1 mps 701 mmHg 90%
20:00 +8°C° 0 mm 1 mps 701 mmHg 90%
21:00 +7°C° 0 mm 1 mps 701 mmHg 89%
22:00 +7°C° 0 mm 1 mps 701 mmHg 89%
23:00 +7°C° 0 mm 1 mps 701 mmHg 89%

28 November, Saturday

Time Temperature Precipitation Wind Pressure Humidity
00:00 +7°C° 0 mm 1 mps 700 mmHg 89%
01:00 +7°C° 0 mm 1 mps 700 mmHg 89%
02:00 +6°C° 0 mm 1 mps 700 mmHg 89%
03:00 +6°C° 0 mm 1 mps 700 mmHg 89%
04:00 +6°C° 0 mm 1 mps 699 mmHg 89%
05:00 +6°C° 0 mm 1 mps 699 mmHg 89%
06:00 +6°C° 0 mm 1 mps 699 mmHg 87%
07:00 +7°C° 0 mm 1 mps 699 mmHg 84%
08:00 +8°C° 0 mm 1 mps 700 mmHg 82%
09:00 +10°C° 0 mm 1 mps 700 mmHg 73%
10:00 +12°C° 0 mm 1 mps 700 mmHg 65%
11:00 +13°C° 0 mm 0 mps 701 mmHg 57%
12:00 +13°C° 0 mm 0 mps 700 mmHg 58%
13:00 +13°C° 0 mm 0 mps 700 mmHg 59%
14:00 +14°C° 0 mm 1 mps 699 mmHg 60%
15:00 +12°C° 0 mm 1 mps 699 mmHg 70%
16:00 +10°C° 0 mm 1 mps 699 mmHg 80%
17:00 +8°C° 0 mm 1 mps 699 mmHg 90%
18:00 +8°C° 0 mm 1 mps 699 mmHg 89%
19:00 +7°C° 0 mm 1 mps 700 mmHg 88%
20:00 +7°C° 0 mm 1 mps 700 mmHg 88%
21:00 +7°C° 0 mm 1 mps 700 mmHg 88%
22:00 +7°C° 0 mm 1 mps 700 mmHg 89%
23:00 +6°C° 0 mm 1 mps 700 mmHg 89%

29 November, Sunday

Time Temperature Precipitation Wind Pressure Humidity
00:00 +6°C° 0 mm 1 mps 700 mmHg 89%
01:00 +6°C° 0 mm 1 mps 700 mmHg 89%
02:00 +6°C° 0 mm 1 mps 700 mmHg 88%
03:00 +6°C° 0 mm 1 mps 701 mmHg 88%
04:00 +6°C° 0 mm 1 mps 701 mmHg 88%
05:00 +6°C° 0 mm 1 mps 701 mmHg 88%
06:00 +6°C° 0 mm 1 mps 702 mmHg 86%
07:00 +7°C° 0 mm 1 mps 702 mmHg 83%
08:00 +8°C° 0 mm 1 mps 703 mmHg 81%
09:00 +9°C° 0 mm 1 mps 703 mmHg 74%
10:00 +11°C° 0 mm 1 mps 704 mmHg 68%
11:00 +13°C° 0 mm 1 mps 704 mmHg 62%
12:00 +13°C° 0 mm 1 mps 704 mmHg 64%
13:00 +13°C° 0 mm 1 mps 704 mmHg 67%
14:00 +13°C° 0 mm 2 mps 704 mmHg 70%
15:00 +10°C° 0 mm 2 mps 704 mmHg 79%
16:00 +9°C° 0 mm 1 mps 704 mmHg 87%
17:00 +8°C° 0 mm 1 mps 704 mmHg 96%
18:00 +8°C° 0 mm 1 mps 705 mmHg 96%
19:00 +8°C° 0 mm 1 mps 705 mmHg 96%
20:00 +8°C° 0 mm 1 mps 706 mmHg 97%
21:00 +8°C° 0 mm 1 mps 706 mmHg 97%
22:00 +8°C° 0 mm 1 mps 706 mmHg 97%
23:00 +7°C° 0 mm 2 mps 706 mmHg 97%

30 November, Monday

Time Temperature Precipitation Wind Pressure Humidity
00:00 +7°C° 0 mm 2 mps 706 mmHg 97%
01:00 +7°C° 0 mm 2 mps 706 mmHg 96%
02:00 +7°C° 0 mm 2 mps 706 mmHg 96%
03:00 +7°C° 0 mm 2 mps 707 mmHg 96%
04:00 +7°C° 0 mm 2 mps 707 mmHg 96%
05:00 +7°C° 0 mm 2 mps 707 mmHg 96%
06:00 +7°C° 0 mm 2 mps 707 mmHg 95%
07:00 +7°C° 0 mm 2 mps 707 mmHg 93%
08:00 +7°C° 0 mm 2 mps 707 mmHg 92%
09:00 +8°C° 0 mm 2 mps 708 mmHg 88%
10:00 +9°C° 0 mm 3 mps 708 mmHg 84%
11:00 +10°C° 0 mm 3 mps 708 mmHg 81%
12:00 +9°C° 0 mm 3 mps 708 mmHg 80%
13:00 +9°C° 0 mm 3 mps 708 mmHg 80%
14:00 +9°C° 0 mm 3 mps 708 mmHg 80%
15:00 +8°C° 0 mm 3 mps 708 mmHg 84%
16:00 +7°C° 0 mm 3 mps 708 mmHg 88%
17:00 +6°C° 0 mm 2 mps 708 mmHg 93%
18:00 +5°C° 0 mm 3 mps 708 mmHg 93%
19:00 +4°C° 0 mm 3 mps 709 mmHg 93%
20:00 +4°C° 0 mm 3 mps 709 mmHg 94%
21:00 +4°C° 0 mm 3 mps 709 mmHg 94%
22:00 +4°C° 0 mm 2 mps 709 mmHg 94%
23:00 +4°C° 0 mm 2 mps 709 mmHg 95%
Show more